Weather History for Sheridan, WY

Change the Weather History Date:

Wednesday, October 10, 2012

  Actual Average Record
Temperature  
Mean Temperature 50 °F 48 °F  
Max Temperature 72 °F 62 °F 88 °F (1996)
Min Temperature 27 °F 33 °F 7 °F (1919)
Degree Days  
Heating Degree Days 15 17  
Month to date heating degree days 196 157  
Since 1 July heating degree days 346 460  
Cooling Degree Days 0 0  
Month to date cooling degree days 0 0  
Year to date cooling degree days 664 418  
Moisture  
Dew Point 30 °F    
Average Humidity 55    
Maximum Humidity 92    
Minimum Humidity 18    
Precipitation  
Precipitation 0.00 in 0.06 in 0.84 in (1961)
Month to date precipitation 0.49 0.56  
Year to date precipitation 7.48 12.04  
Sea Level Pressure  
Sea Level Pressure 29.98 in    
Wind  
Wind Speed 4 mph (WNW)    
Max Wind Speed 14 mph    
Max Gust Speed 21 mph    
Visibility 10 miles    
Events      
T = Trace of Precipitation, MM = Missing Value Source: NWS Daily Summary

Daily Weather History Graph

Daily Weather History Graph

Search for Another Location

Airport:

Trip Planner

Search our weather history database for the weather conditions in past years. The results will help you decide how hot, cold, wet, or windy it might be!

Date:

Astronomy

Oct. 10, 2012 Rise Set
Actual Time 7:17 AM MDT 6:31 PM MDT
Civil Twilight 6:48 AM MDT 7:00 PM MDT
Nautical Twilight 6:14 AM MDT 7:34 PM MDT
Astronomical Twilight 5:40 AM MDT 8:07 PM MDT
Moon 1:44 AM MDT (10/10) 3:46 PM MDT (10/10)
Length of Visible Light 12h 11m
Length of Day
11h 13m
Waning Crescent, 26% of the Moon is Illuminated
Oct 10
Waning Crescent
Oct 15
New
Oct 21
First Quarter
Oct 29
Full
Nov 6
Last Quarter

Hourly Weather History & Observations

Time (MDT) Temp. Windchill Dew Point Humidity Pressure Visibility Wind Dir Wind Speed Gust Speed Precip Events Conditions
12:53 AM 35.1 °F 32.2 °F 28.0 °F 76% 30.11 in 10.0 mi SSE 3.5 mph - N/A   Clear
1:53 AM 33.1 °F - 27.0 °F 78% 30.10 in 10.0 mi Calm Calm - N/A   Clear
2:53 AM 32.0 °F 25.6 °F 27.0 °F 82% 30.09 in 10.0 mi SSW 6.9 mph - N/A   Clear
3:53 AM 33.1 °F 27.7 °F 27.0 °F 78% 30.04 in 10.0 mi SSW 5.8 mph - N/A   Clear
4:53 AM 30.9 °F - 26.1 °F 82% 30.04 in 10.0 mi Calm Calm - N/A   Clear
5:53 AM 32.0 °F - 26.1 °F 79% 30.03 in 10.0 mi Calm Calm - N/A   Clear
6:53 AM 28.9 °F - 26.1 °F 89% 30.05 in 10.0 mi Calm Calm - N/A   Clear
7:53 AM 30.0 °F 25.2 °F 27.0 °F 88% 30.05 in 10.0 mi South 4.6 mph - N/A   Clear
8:53 AM 39.9 °F - 32.0 °F 73% 30.02 in 10.0 mi Calm Calm - N/A   Clear
9:53 AM 46.9 °F - 33.1 °F 59% 30.00 in 10.0 mi Calm Calm - N/A   Clear
10:53 AM 55.0 °F - 35.1 °F 47% 29.96 in 10.0 mi Calm Calm - N/A   Clear
11:53 AM 64.0 °F - 34.0 °F 33% 29.93 in 10.0 mi Calm Calm - N/A   Clear
12:53 PM 68.0 °F - 27.0 °F 21% 29.90 in 10.0 mi North 4.6 mph - N/A   Clear
1:53 PM 66.9 °F - 27.0 °F 22% 29.88 in 10.0 mi Calm Calm - N/A   Clear
2:53 PM 71.1 °F - 26.1 °F 19% 29.85 in 10.0 mi Variable 4.6 mph - N/A   Clear
3:53 PM 72.0 °F - 26.1 °F 18% 29.84 in 10.0 mi Variable 5.8 mph - N/A   Clear
4:53 PM 70.0 °F - 25.0 °F 18% 29.85 in 10.0 mi North 10.4 mph - N/A   Clear
5:53 PM 64.0 °F - 30.0 °F 28% 29.87 in 10.0 mi NNW 6.9 mph - N/A   Clear
6:53 PM 54.0 °F - 30.9 °F 41% 29.93 in 10.0 mi WNW 9.2 mph - N/A   Clear
7:53 PM 52.0 °F - 30.9 °F 45% 29.97 in 10.0 mi WNW 4.6 mph - N/A   Clear
8:53 PM 50.0 °F - 33.1 °F 52% 29.98 in 10.0 mi NW 9.2 mph - N/A   Clear
9:53 PM 46.0 °F - 33.1 °F 61% 30.00 in 10.0 mi Calm Calm - N/A   Clear
10:53 PM 46.9 °F - 35.1 °F 63% 30.03 in 10.0 mi NNE 6.9 mph - N/A   Clear
11:53 PM 46.9 °F - 36.0 °F 66% 30.04 in 10.0 mi North 3.5 mph - N/A   Clear